STARLINK-34679

Last updated on Tue Sep 16 2025 00:02:08 GMT+0000 (Coordinated Universal Time)

1 65442U 25194J 25257.57725077 -.00185431 00000+0 -10484-2 0 9995 2 65442 97.5981 108.8622 0003217 35.1773 324.9706 15.79496738 3023
UTC large
Height (km)
Speed (km/s)
/
Latitude / Longitude
Inclination (degrees)
Orbital Period (minutes)
Azimuth
Elevation
Range (km)
Doppler Factor

Next 0 passes for location: London (51.5072 / 0.1276)

Sorry there are no passes over London.